User: anonymous   Login
Location: Theydon Bois
(51.6750°N, 0.1050°E)
Time: 14:14:17
(UTC+00:00)
Language:

CZ-3A R/B - Orbit

View from above orbital plane
View from above orbital plane
View from above satellite
View from above satellite

Ground track
Ground track

The orbit data is extracted from the following two-line orbital elements,

1 37385U 11013B   17345.86278962 +.00000135 +00000-0 +84430-2 0  9990
2 37385 055.4318 189.1212 6610373 157.7767 254.8170 02.63325725063128
Epoch (UTC): 11 December 2017 20:42:25
Eccentricity: 0.6610373
inclination: 55.4318°
perigee height: 1130 km
apogee height: 30416 km
right ascension of ascending node: 189.1212°
argument of perigee: 157.7767°
revolutions per day: 2.63325725
mean anomaly at epoch: 254.8170°
orbit number at epoch: 6312

The dashed part of the orbit path shows where the satellite is in the earth's shadow,  

DLR